GFSSGP_sfc_dewp_336.txt.gz
Dewpoint
69 63 58 52 43 46 43 42 49 46 45 51 49 48 49 51 49 41 63 62 68 72 74 74 75 75 74 73 74 73 74 75 75 75 75 76 76 76 76 75 75 75 73 72 72 71 71 71 70
66 61 48 44 36 34 34 42 44 44 43 47 46 49 48 49 57 59 60 69 69 73 75 74 75 75 75 74 74 74 74 74 74 74 74 75 75 75 75 75 75 74 72 71 71 70 70 70 70
58 46 35 37 37 34 34 39 43 44 45 46 41 48 46 52 59 59 64 71 72 73 75 74 75 75 75 74 74 74 74 74 74 74 74 74 75 75 75 75 75 73 71 71 70 71 71 71 71
45 38 36 35 35 34 34 33 41 38 44 45 44 40 52 53 58 61 70 72 72 73 74 75 76 76 75 74 74 75 75 74 74 74 74 74 73 74 74 74 74 73 72 71 71 72 72 71 71
34 34 30 29 27 29 31 31 30 39 42 45 47 38 46 56 66 70 70 71 71 71 74 73 76 75 75 73 73 74 75 75 74 74 74 73 74 74 73 73 72 72 72 71 72 72 73 73 72
27 29 24 21 18 17 14 18 36 41 47 48 45 44 47 62 67 69 69 70 71 71 74 72 75 75 75 75 74 74 75 75 75 74 74 74 74 73 73 72 72 72 72 72 72 72 72 72 72
26 23 20 19 13 7 7 11 39 44 46 46 43 40 47 60 64 67 67 70 71 72 72 73 74 75 75 75 74 74 75 75 75 75 74 74 73 73 73 73 72 72 73 73 72 72 72 72 72
25 19 27 6 5 2 8 6 18 45 43 47 45 38 43 52 63 64 67 69 70 71 71 71 73 73 73 73 75 74 74 75 75 75 74 74 73 73 72 73 73 72 72 72 72 72 72 72 72
11 1 -0 -1 4 -0 4 3 12 35 42 46 45 48 50 59 61 63 67 67 68 69 70 70 70 71 73 73 73 74 73 73 74 74 74 74 73 72 72 72 73 72 72 72 72 72 72 72 72
1 -1 -2 -1 2 1 1 4 5 16 33 43 46 52 59 60 59 62 64 64 66 66 68 69 69 69 71 72 72 73 71 71 72 72 72 73 72 71 71 72 72 72 71 73 73 73 72 70 69
1 0 1 1 1 4 3 11 48 41 17 36 45 49 58 59 59 61 62 63 64 65 66 68 69 69 69 71 72 72 72 71 71 71 71 71 71 71 71 71 71 71 72 71 71 72 71 69 68
5 5 1 2 7 5 30 30 53 55 55 56 54 54 58 59 60 59 57 59 61 64 65 65 69 69 69 70 70 71 70 70 71 71 70 70 70 69 69 69 70 70 70 71 71 70 70 69 68
8 7 4 7 33 46 50 51 53 51 51 54 55 56 55 55 57 59 61 57 58 61 64 64 66 68 69 68 68 69 70 70 70 70 70 70 69 68 68 68 67 68 68 68 69 69 69 68 67
11 14 13 12 35 50 49 49 51 50 52 53 56 57 61 62 61 61 62 61 65 61 59 64 64 66 67 67 66 66 67 68 67 68 68 69 68 67 66 66 65 65 65 66 67 68 68 68 67
16 12 12 31 24 46 44 46 45 46 55 60 63 64 65 66 67 67 67 67 68 68 66 63 64 64 65 66 65 66 67 67 66 66 67 67 67 67 66 66 65 66 66 66 67 67 68 67 67
12 10 8 23 37 42 47 43 44 48 54 57 62 64 64 65 66 66 66 66 66 66 67 66 65 63 63 65 66 67 68 68 68 68 67 66 65 65 66 66 66 66 67 67 66 66 66 66 66
10 9 9 31 41 41 44 41 44 49 55 58 60 61 62 63 65 65 65 65 65 66 66 65 66 67 67 66 66 67 67 67 68 67 66 65 65 65 65 64 64 64 64 65 66 66 65 65 65
11 12 25 35 40 42 43 44 47 50 56 60 58 57 58 61 64 65 64 63 63 63 65 66 66 66 66 68 68 68 66 65 65 65 66 65 65 65 64 64 62 64 63 63 64 64 65 64 64
13 28 35 38 41 41 43 45 47 51 52 57 57 54 56 58 62 63 62 59 58 61 62 64 65 66 66 66 66 67 65 65 65 64 63 64 64 64 64 63 62 63 63 62 63 64 64 64 63
19 18 30 38 41 41 42 41 44 50 53 55 58 55 55 56 57 58 59 57 58 59 60 62 64 65 66 65 65 66 67 67 64 64 63 64 63 64 64 63 62 61 62 63 63 63 63 63 64
15 12 21 26 40 40 39 37 43 49 55 55 57 58 56 56 56 57 59 58 57 59 59 60 62 63 64 65 65 65 66 66 65 65 65 65 64 64 65 64 63 62 62 62 63 63 63 62 63
14 15 16 36 32 30 32 34 41 46 53 54 57 57 56 57 57 57 57 58 59 59 59 59 59 60 62 63 63 62 62 62 64 64 65 65 65 65 65 64 65 65 64 63 64 65 64 63 62
16 28 26 31 23 32 33 35 39 46 50 52 55 56 56 57 57 56 55 57 59 59 58 58 58 58 58 59 61 61 61 62 63 63 62 62 63 65 65 63 62 62 63 63 64 64 63 64 64
25 25 26 30 30 29 34 35 37 43 49 51 54 53 56 56 56 54 54 53 53 53 54 55 55 56 57 56 57 58 58 60 60 60 61 61 61 61 61 61 61 62 62 62 63 64 64 64 64
24 23 21 19 23 26 33 38 39 46 49 50 52 52 53 53 53 53 53 52 51 51 52 53 55 54 56 56 55 54 54 57 58 58 60 60 60 60 59 60 59 61 61 61 61 61 62 62 61
25 25 24 22 20 23 36 36 40 47 47 48 53 52 51 50 49 49 49 49 49 50 51 52 53 53 53 55 55 54 54 55 57 57 58 59 59 59 59 59 59 60 60 60 59 60 59 60 60
23 25 27 25 27 28 34 39 41 44 42 48 48 49 47 46 46 46 47 47 47 46 47 48 51 51 52 53 54 53 53 54 55 55 57 58 59 59 59 59 58 59 58 57 57 58 57 57 57
23 26 21 25 21 21 25 37 38 42 41 41 42 44 44 44 45 45 45 46 46 44 44 46 48 49 50 52 52 52 53 54 55 55 55 55 57 58 58 58 58 58 57 57 57 57 57 56 56
21 21 27 26 25 19 22 35 41 41 41 41 41 42 42 41 41 42 41 42 42 43 42 45 48 49 50 51 51 52 52 53 55 55 55 56 56 57 58 57 55 51 50 51 53 53 55 53 51
27 26 23 23 20 28 30 35 42 42 41 41 41 40 40 39 38 40 39 39 39 40 42 46 49 51 51 51 52 52 52 53 53 54 53 54 52 51 51 51 50 50 51 52 51 49 48 47 45

GFSSGP_sfc_dewp_339.txt.gz
Dewpoint
67 60 57 53 43 45 42 40 47 45 45 49 49 48 48 49 47 45 62 64 62 69 72 72 75 75 74 74 75 75 76 76 76 76 76 76 75 75 75 75 76 76 75 74 73 72 72 72 72
59 56 50 45 36 31 29 40 42 40 42 47 47 49 48 47 56 57 60 63 65 70 72 70 75 75 74 74 74 75 75 76 76 76 76 76 76 76 76 76 75 75 74 73 72 72 71 72 72
52 46 37 37 38 27 26 34 27 31 43 42 41 46 45 50 57 57 63 66 66 70 71 72 76 75 74 74 74 74 74 74 74 75 76 76 76 75 75 75 75 74 73 72 71 72 72 72 72
45 40 37 35 30 32 33 22 25 32 43 42 42 40 48 52 56 60 67 67 66 68 71 74 76 75 75 73 74 74 74 74 74 74 74 75 75 75 75 75 75 74 73 72 72 73 73 72 72
34 35 32 30 28 28 28 26 22 34 42 43 44 40 44 55 65 68 68 68 65 68 70 72 76 76 75 73 74 74 74 75 74 74 73 73 74 74 74 74 74 74 74 74 73 73 73 73 73
28 32 28 20 16 16 13 12 34 38 44 46 43 41 47 61 65 68 68 69 68 68 70 71 75 76 75 74 74 75 75 75 75 75 74 74 74 74 74 74 73 74 74 73 73 73 73 73 73
26 28 20 18 12 7 5 7 12 41 44 43 42 37 47 60 67 67 68 69 69 69 70 70 71 73 75 75 74 75 75 75 75 75 75 75 75 74 74 74 74 74 74 73 73 73 73 73 73
25 22 14 10 4 4 5 4 22 42 41 46 43 37 45 59 66 66 67 67 66 67 69 70 72 70 70 68 74 75 75 75 75 75 75 75 74 74 74 74 73 73 73 73 73 73 73 73 73
13 8 6 1 3 4 4 11 15 20 37 44 48 52 57 63 65 63 63 63 65 66 68 68 69 70 71 70 70 74 73 74 74 74 74 73 68 68 69 70 72 72 72 73 73 73 73 73 73
6 11 3 2 3 4 25 49 49 36 30 42 49 58 61 62 62 60 59 58 60 63 66 67 68 69 69 70 70 71 70 68 68 67 69 69 69 69 68 69 72 72 72 73 73 73 73 72 63
5 10 6 5 6 5 8 50 51 50 45 52 52 54 58 60 61 60 60 61 60 60 63 65 68 69 69 69 70 71 70 70 71 71 71 70 70 69 68 67 67 67 70 67 67 67 67 65 64
7 9 6 6 38 33 42 51 49 51 54 55 54 57 59 59 59 59 56 59 60 60 62 64 65 69 70 69 69 70 71 70 70 71 71 71 69 69 68 67 66 66 65 66 66 65 65 66 66
12 10 9 27 50 50 49 49 51 53 57 60 59 59 59 61 64 66 67 67 67 65 66 64 65 68 69 70 69 69 70 69 68 68 69 68 69 68 68 67 66 65 65 65 64 64 64 64 65
13 16 24 38 48 49 47 49 51 58 62 63 64 64 65 65 65 65 65 65 65 66 65 64 65 67 67 70 69 68 67 67 66 67 67 67 68 68 66 65 65 65 65 64 63 63 63 63 64
15 22 43 39 34 47 43 49 52 57 62 62 63 64 64 64 64 64 64 65 64 65 67 67 66 67 69 70 69 69 70 69 69 67 68 67 66 66 66 67 67 65 65 67 67 67 67 66 66
13 15 22 40 41 45 47 47 52 58 60 60 62 63 63 63 62 62 62 63 65 63 65 67 68 68 67 68 69 70 70 69 69 67 67 65 65 66 66 66 65 67 67 67 66 66 67 68 68
16 13 28 38 43 43 46 48 52 58 58 58 60 61 61 60 60 60 59 61 62 65 66 65 67 67 69 68 67 69 69 68 68 67 67 66 65 65 66 66 66 66 66 65 66 66 67 66 67
15 27 37 38 43 47 47 49 55 58 54 54 56 57 56 53 55 56 58 60 62 64 65 66 65 67 69 68 69 68 68 68 68 68 68 67 67 65 65 65 65 65 65 64 65 65 65 66 66
18 36 38 40 41 44 46 51 52 55 53 51 51 51 51 51 52 54 56 58 59 61 62 63 63 67 65 64 65 67 67 68 68 69 67 67 67 66 66 65 65 65 64 63 64 64 64 64 66
38 37 37 40 43 43 44 46 50 52 55 54 51 50 49 50 52 54 56 57 57 59 60 62 62 64 64 61 66 67 68 67 68 68 69 68 66 66 65 65 65 64 64 64 64 63 64 64 65
24 27 36 34 41 42 42 43 49 52 54 54 55 53 53 51 51 53 54 56 55 56 56 58 61 63 63 64 61 61 61 58 57 59 61 66 67 67 68 67 66 65 65 62 63 64 63 62 64
18 16 29 39 37 33 35 31 46 49 52 54 55 53 54 54 53 53 53 55 56 56 56 57 58 60 59 61 59 61 56 54 55 57 59 61 65 65 65 66 66 65 66 65 64 65 65 65 62
19 28 35 35 34 34 34 31 42 49 49 51 54 54 54 53 52 50 50 52 53 54 56 57 58 58 60 61 60 56 58 56 57 58 61 62 63 66 65 64 64 63 63 63 63 63 64 65 63
31 29 32 32 33 30 36 35 38 45 47 51 50 51 52 51 51 51 50 48 47 44 46 53 56 58 59 59 59 59 59 58 57 57 57 56 59 61 65 63 63 63 63 62 62 63 63 63 64
27 28 20 23 24 28 37 38 42 46 47 49 49 51 51 51 48 47 46 43 42 43 44 46 54 55 57 57 57 57 57 58 57 57 54 56 55 58 61 63 63 62 62 61 62 61 62 63 63
29 30 22 18 21 25 38 37 41 46 45 47 53 52 50 47 46 46 44 40 38 41 45 47 51 53 53 54 54 54 55 51 52 54 54 53 54 55 60 61 62 62 61 60 60 61 60 61 61
27 28 31 31 32 30 35 40 42 43 44 49 50 49 47 46 47 41 37 38 43 43 45 48 51 52 52 52 53 54 54 54 54 56 56 54 57 56 58 60 61 61 61 60 59 60 59 60 60
28 30 26 28 21 17 29 38 38 42 42 44 45 45 43 40 37 37 38 43 44 42 45 50 51 52 52 52 52 52 53 54 54 54 55 54 54 54 56 57 57 55 56 58 60 59 58 58 57
24 25 31 32 29 20 20 33 42 43 43 43 42 40 37 35 35 37 38 39 40 42 43 50 51 51 51 52 53 53 53 52 53 51 50 49 49 50 51 52 52 52 52 54 55 55 54 53 52
30 30 30 25 27 32 30 33 43 43 42 41 38 37 35 35 35 36 37 39 42 43 49 50 52 52 52 52 52 52 50 50 49 49 48 48 48 49 49 50 50 51 51 51 50 48 47 45 45

GFSSGP_sfc_dewp_342.txt.gz
Dewpoint
66 56 51 49 41 38 30 32 38 36 36 40 44 43 40 43 42 45 60 62 60 64 68 70 75 75 75 75 76 77 77 77 76 76 76 76 76 76 76 75 76 75 75 74 72 72 72 72 71
49 48 46 34 34 29 26 27 28 29 34 38 44 43 40 41 53 54 58 62 62 66 68 66 75 75 74 75 75 76 77 77 77 76 76 76 76 76 76 76 75 75 75 74 73 72 72 72 72
45 43 30 32 29 20 23 21 23 28 31 36 39 41 40 50 56 57 62 63 63 67 67 70 75 75 74 74 75 75 76 76 76 76 76 76 76 76 76 76 75 74 75 74 73 72 73 72 71
39 34 34 30 21 18 20 19 25 31 39 38 40 36 46 56 58 62 64 63 64 64 65 74 76 75 74 74 74 75 75 75 76 76 76 76 76 76 76 75 75 74 74 73 73 73 72 71 71
28 25 27 24 16 14 12 12 33 34 36 36 42 36 47 61 64 65 65 63 63 64 65 70 76 74 74 74 74 74 75 75 75 75 75 75 75 75 75 75 74 74 73 73 72 73 73 72 71
20 30 24 14 12 10 11 13 27 35 38 43 38 39 49 61 64 65 65 64 63 65 66 70 75 75 74 73 74 74 75 75 75 75 74 74 74 74 74 74 74 74 74 74 74 74 74 74 73
26 27 13 10 11 10 8 11 32 34 34 41 42 37 48 60 64 65 65 66 65 65 64 68 69 73 74 74 74 74 74 74 75 75 75 74 73 73 73 73 73 73 74 74 74 74 74 74 74
22 18 8 4 7 7 14 13 14 21 35 43 43 41 45 61 64 64 64 63 61 61 62 64 67 67 67 67 74 74 74 74 74 74 74 74 73 74 73 74 73 73 73 73 74 74 74 74 73
16 11 10 5 6 7 29 24 31 33 33 49 52 55 60 62 62 60 60 60 60 61 61 61 62 64 65 63 70 73 73 74 74 73 74 73 66 66 67 70 72 72 72 73 74 74 74 73 73
7 12 7 7 7 7 35 40 41 36 40 46 46 56 60 61 59 58 58 58 58 59 61 61 61 63 64 65 68 69 67 67 66 65 67 67 65 65 66 70 72 72 72 73 74 74 74 73 62
8 12 9 10 22 9 27 42 48 42 48 52 47 55 58 59 59 55 57 56 55 56 60 61 64 66 63 63 66 66 65 67 69 71 70 69 65 64 64 63 63 66 70 66 67 67 67 63 60
8 11 12 31 36 35 43 46 52 54 55 56 57 58 59 62 62 62 63 63 61 59 63 63 62 67 67 64 67 67 66 68 68 68 71 69 68 67 68 64 62 63 61 62 62 60 60 61 61
12 12 15 42 43 45 49 53 55 57 59 60 61 62 62 62 63 63 61 60 61 60 61 65 66 67 71 69 67 67 67 68 67 68 68 66 66 67 66 65 64 63 61 61 61 61 60 60 61
13 25 25 42 44 45 49 51 52 59 61 61 61 61 61 60 59 60 61 59 61 65 63 64 67 70 66 70 69 70 74 73 66 65 65 68 66 66 64 63 63 63 61 60 60 60 60 60 60
14 34 40 42 43 43 45 51 55 59 60 61 61 60 57 55 55 56 57 58 57 62 65 63 62 64 69 69 71 72 70 70 69 66 68 68 69 68 68 65 63 62 61 63 65 65 65 63 62
14 32 29 39 42 45 45 50 56 58 58 58 58 53 52 53 52 53 53 54 58 57 59 62 61 66 69 69 68 67 70 70 70 70 70 68 67 67 67 64 65 65 66 64 63 63 64 66 69
16 14 20 36 41 42 44 50 56 56 57 57 52 48 47 48 52 54 53 54 56 57 57 57 61 60 62 66 65 66 69 68 67 67 67 68 68 68 67 66 66 68 66 65 65 63 63 62 64
15 20 27 33 42 43 46 52 55 54 53 52 49 45 45 47 50 53 54 54 56 57 58 59 59 61 61 59 60 62 60 65 68 67 67 69 68 67 68 66 67 66 64 63 64 64 63 62 61
19 24 33 43 45 45 50 51 53 51 48 45 43 45 47 47 49 52 54 55 55 57 58 58 59 61 57 54 54 54 54 56 56 58 63 66 68 68 68 68 67 65 65 65 65 65 64 62 63
26 28 36 40 42 45 49 49 52 53 50 47 47 46 45 48 51 53 54 54 54 55 55 57 57 59 56 52 54 53 52 51 51 51 58 58 60 65 68 67 65 66 67 66 65 65 64 62 64
25 24 33 34 40 42 44 45 48 52 53 51 52 51 49 49 50 52 53 53 54 54 54 55 57 58 60 60 52 53 52 50 45 49 51 57 58 60 64 65 67 67 68 67 66 66 65 64 63
19 18 24 34 33 28 40 33 47 48 51 51 53 51 50 51 51 51 51 53 54 53 54 54 55 58 57 60 56 60 50 48 49 48 51 56 58 58 60 62 64 66 66 65 64 64 64 65 62
23 22 26 31 28 30 33 28 45 48 49 50 52 51 51 51 48 49 48 48 45 44 48 51 54 57 58 58 58 53 54 50 49 49 58 61 59 56 56 60 62 64 64 64 63 63 63 64 64
29 32 33 32 27 24 33 30 38 43 47 49 51 50 50 49 48 48 48 44 43 42 43 47 52 56 57 56 56 57 56 55 52 54 51 47 49 50 55 57 61 62 64 63 63 64 63 62 63
25 27 22 22 21 24 36 30 43 45 46 47 48 49 49 48 46 45 43 41 42 41 43 44 51 53 55 56 55 56 57 57 55 54 51 55 51 51 57 59 59 61 62 63 63 63 62 62 61
23 24 20 18 17 19 35 28 42 45 46 47 50 49 47 46 45 42 40 39 38 40 43 44 46 50 52 53 55 56 56 52 51 54 55 55 53 53 55 57 59 61 61 61 63 61 61 61 61
26 27 28 26 27 18 27 38 42 42 44 48 49 48 47 44 42 40 39 40 40 41 43 46 49 51 52 53 54 54 54 54 54 55 52 51 51 50 52 56 56 56 58 58 60 61 61 61 58
29 30 26 25 21 18 20 27 33 43 44 43 45 44 43 41 38 38 38 40 40 41 42 49 51 51 52 53 53 52 53 53 52 51 50 49 49 50 51 52 54 54 55 56 57 55 53 52 51
26 26 30 30 25 18 17 32 42 44 45 44 42 41 39 36 36 36 36 38 39 40 43 50 50 51 52 52 52 52 52 51 50 50 49 49 49 49 50 50 51 51 51 52 52 51 49 47 46
31 31 29 25 27 28 25 33 44 44 42 42 40 37 36 37 36 36 37 38 40 45 47 48 52 51 52 52 51 51 49 48 48 48 48 48 48 47 48 49 50 50 49 49 49 48 47 47 47

GFSSGP_sfc_dewp_345.txt.gz
Dewpoint
64 56 53 41 41 44 38 28 32 30 29 31 33 37 35 38 40 45 57 59 60 64 65 68 75 75 75 76 76 78 77 77 76 76 76 76 76 75 75 75 75 75 75 73 73 73 72 72 73
52 43 39 37 37 34 24 24 24 25 28 32 30 28 36 45 45 50 56 59 62 64 63 66 75 75 75 76 76 77 77 77 76 77 76 76 76 76 75 75 75 75 75 74 72 72 72 71 70
57 37 32 30 30 23 22 23 26 27 29 30 36 33 38 48 53 54 58 58 63 64 63 71 75 75 75 75 76 77 77 77 77 77 76 76 76 76 76 76 75 74 75 74 73 72 72 71 71
39 31 30 29 20 22 20 21 27 33 34 31 44 38 53 55 55 56 59 58 58 61 65 73 75 74 74 74 75 76 76 77 77 76 76 76 76 76 76 75 75 74 74 74 73 73 72 72 71
31 25 27 23 19 18 18 23 27 35 35 39 44 41 54 57 59 60 59 56 55 57 67 67 75 74 74 73 74 74 75 76 76 76 75 75 75 75 74 74 73 73 74 73 73 73 73 73 72
21 25 25 14 16 15 18 20 26 30 32 34 32 39 54 59 59 60 58 57 54 58 64 67 74 74 73 73 73 73 74 74 74 75 75 74 74 74 74 74 73 73 73 73 73 74 74 74 73
22 27 15 12 15 14 18 20 25 28 32 34 34 51 55 56 58 59 60 61 60 59 63 66 65 70 73 73 74 74 74 74 74 74 74 73 73 73 73 73 73 73 73 73 73 74 74 74 74
24 21 13 11 13 13 24 20 20 22 36 43 47 55 56 58 59 59 60 59 58 58 59 63 65 65 64 64 73 74 74 74 74 74 74 74 73 73 73 74 73 73 73 73 74 74 74 74 74
17 15 10 8 10 15 25 27 28 23 41 48 53 56 58 58 57 56 56 56 58 58 58 59 58 61 61 61 68 73 73 73 73 73 74 72 64 65 66 69 71 73 74 74 74 74 74 74 73
12 15 10 8 10 10 26 32 31 35 47 42 52 57 58 57 57 55 54 54 55 56 57 58 59 59 59 57 70 69 67 66 66 65 68 68 64 64 62 69 73 73 74 74 74 74 74 73 63
17 12 10 16 22 14 24 40 43 47 49 51 52 55 57 57 56 54 57 61 61 63 62 63 63 65 61 67 64 61 63 64 68 68 68 67 63 61 61 60 64 67 71 66 68 68 67 61 58
12 12 14 29 26 29 33 46 50 52 54 56 57 58 59 60 59 57 56 59 64 64 61 63 64 68 69 67 69 64 61 68 69 71 72 76 68 68 66 63 64 66 63 66 64 60 64 64 63
14 12 15 32 34 40 46 50 52 54 55 57 58 58 57 56 56 56 54 55 55 57 61 62 65 68 70 72 71 72 71 69 69 69 68 68 68 68 66 66 63 60 58 58 58 59 60 60 59
14 14 14 33 37 43 46 48 53 57 58 59 56 53 53 53 53 54 56 54 56 58 56 60 63 67 68 72 72 69 70 71 71 69 67 68 67 67 65 64 63 61 60 58 57 58 60 60 59
12 18 21 31 39 42 51 51 52 56 57 55 53 50 49 49 50 52 53 54 54 56 58 56 62 68 69 69 69 71 70 71 72 68 68 67 66 68 69 64 63 64 64 65 65 65 65 64 62
11 22 25 33 35 37 40 50 51 54 54 50 48 48 49 50 50 51 52 54 55 55 58 59 55 58 63 64 63 61 64 66 67 68 67 67 66 68 70 69 69 68 68 66 66 65 65 64 67
15 18 25 30 31 35 33 49 51 52 53 48 45 45 47 50 52 52 52 54 55 57 58 57 59 57 57 60 56 57 64 61 62 63 66 67 67 67 70 71 70 71 69 68 65 63 65 64 63
14 11 15 24 31 31 38 47 50 51 50 47 44 44 47 49 51 53 55 55 56 56 58 58 57 59 59 54 55 50 50 52 54 57 59 64 62 62 66 67 69 68 68 69 68 66 64 63 62
12 17 23 35 35 34 41 47 48 50 49 46 43 45 47 48 51 53 54 54 55 55 57 58 57 61 56 50 48 48 47 48 47 49 56 59 58 60 64 62 68 68 66 66 67 67 66 65 64
17 22 29 35 36 36 43 44 48 47 46 44 45 46 47 50 52 53 54 54 55 55 56 57 57 59 58 52 54 53 52 47 48 50 60 62 60 62 61 64 63 67 68 66 66 65 66 67 68
21 23 29 29 34 34 38 44 52 48 47 48 50 49 49 49 51 53 54 54 55 55 55 55 56 58 58 59 54 55 54 50 47 49 48 57 57 59 63 63 62 66 67 67 65 66 64 63 65
20 16 20 25 27 28 39 30 48 49 49 49 51 50 49 50 51 50 50 51 50 47 54 53 55 56 55 59 58 62 52 49 50 49 51 56 58 56 57 60 62 63 67 66 66 66 65 64 62
23 19 18 22 25 25 24 26 43 52 48 49 50 49 50 50 48 49 47 46 45 45 47 55 57 56 57 58 59 54 57 52 50 50 58 60 59 59 57 60 61 63 58 63 64 64 64 64 64
23 22 24 24 21 22 40 26 45 51 49 51 51 50 49 48 49 48 47 44 43 42 44 50 51 55 58 56 56 59 57 57 53 54 52 51 51 54 56 56 57 59 61 62 64 64 64 64 64
21 27 23 24 20 25 36 21 42 44 44 48 50 52 50 47 48 45 41 41 43 43 42 42 50 51 57 55 56 57 57 58 55 53 51 52 51 52 52 54 55 57 60 62 63 63 63 63 62
19 21 20 21 15 14 27 32 43 44 45 46 48 49 47 46 43 41 41 41 40 41 42 41 46 50 52 54 55 56 55 52 51 52 50 48 48 49 51 52 54 57 59 61 61 63 61 60 57
26 25 22 25 23 19 30 37 41 41 42 44 45 47 44 43 41 40 40 39 40 40 42 44 48 52 52 51 53 54 53 54 53 53 51 49 48 48 50 51 52 53 55 57 58 55 55 52 50
25 26 23 27 21 17 14 36 40 41 42 42 42 42 42 41 39 38 38 39 39 39 44 51 50 49 50 51 52 50 52 51 50 50 50 48 48 47 48 49 50 52 52 52 53 51 50 49 49
24 25 28 27 27 23 18 35 42 43 43 43 41 40 38 38 37 37 36 36 39 47 46 49 50 49 50 51 51 52 51 50 49 49 48 49 49 48 48 48 48 50 50 49 49 49 49 48 48
26 29 28 25 28 22 25 37 43 42 41 42 39 38 38 37 35 34 35 43 44 44 44 48 53 50 50 49 52 52 50 48 46 48 49 48 47 48 46 46 46 47 48 46 46 46 45 45 47